Retour au catalogue

STARLINK-35607

ActifCommunicationsVLEO
NORAD 66163·PAYLOAD·🇺🇸 United States

Lancé Oct 25, 2025 depuis Cape Canaveral Space Force Station

Loading…

Prochains Passages (prochaines 24 heures)

TLE

FraisSource: CelesTrak SupGP

Époque: Sep 14, 2026, 23:08 UTC

1 66163C 25240T   26257.96437500  .00039848  00000+0  11773-2 0  2570
2 66163  53.1575 259.4826 0001300  95.7670 345.2898 15.34372159    14

Suivez STARLINK-35607 en temps réel avec AllMySat

Download on the App Store